« Back
NWS Peachtree City, Ga » Text Product » GA Regional Weather Roundup


Printer-friendly Version
Current Version              Previous Versions:   1  2  3  4  5  6  7  8  9  

Regional Weather Roundup

084
ASUS42 KFFC 260703
RWRGA
WEATHER ROUNDUP FOR GEORGIA
NATIONAL WEATHER SERVICE PEACHTREE CITY GA
300 AM EDT SUN JUN 26 2016

NOTE: "FAIR" INDICATES FEW OR NO CLOUDS BELOW 12,000 FEET WITH NO
SIGNIFICANT WEATHER AND/OR OBSTRUCTIONS TO VISIBILITY.

* = USE WITH CAUTION. THE STATIONS MARKED WITH AN ASTERISK MAY NOT
REPORT WEATHER SUCH AS PRECIPITATION, FOG, OR THUNDER AND ARE NOT
QUALITY CONTROLLED BY NWS.

THE REMARK "TC" DENOTES TEMPERATURE READING IN DEGREES CELSIUS.

GAZ001>058-260800-
NORTH GEORGIA

CITY           SKY/WX    TMP DP  RH WIND       PRES   REMARKS
ATLANTA        PTCLDY    82  63  52 E14       30.09S
ATHENS         PTCLDY    77  67  71 E8        30.13S
CHAMBLEE       CLEAR     82  63  52 VRB6      30.11R
PEACHTREE CITY CLEAR     80  67  64 NE5       30.08S
ROME           PTCLDY    75  65  70 NE7       30.09S
WEST ATLANTA   CLEAR     82  63  52 NE9       30.09R
GAINESVILLE    CLEAR     76  66  71 NE13      30.17F
CARTERSVILLE   PTCLDY    77  67  71 VRB3      30.10F


CITY           SKY/WX    TMP DP  RH WIND       PRES   REMARKS
DALTON*        CLEAR     73  70  88 CALM      30.11R
MARIETTA       CLEAR     80  64  57 NE9       30.10S
CANTON*        PTCLDY    77  59  53 NE6       30.15S
$$

GAZ059>098-102>109-260800-
CENTRAL GEORGIA

CITY           SKY/WX    TMP DP  RH WIND       PRES   REMARKS
AUGUSTA-BUSH   PTCLDY    75  72  90 SW5       30.09S
AUGUSTA-DANIEL CLEAR     80  71  74 E3        30.11S
COLUMBUS       CLEAR     80  69  69 S3        30.05F
MACON          CLOUDY    76  69  79 NE3       30.04F
ROBINS AFB     CLOUDY    75  72  89 NE3       30.03F


CITY           SKY/WX    TMP DP  RH WIND       PRES   REMARKS
LAGRANGE*      CLEAR     77  77 100 CALM      30.07S
SYLVANIA*      PTCLDY    79  73  82 E3        30.09R
MILLEDGEVILLE* CLOUDY    77  72  83 CALM      30.09S
$$

GAZ099>101-110>166-260800-
SOUTH GEORGIA

CITY           SKY/WX    TMP DP  RH WIND       PRES   REMARKS
SAVANNAH       CLEAR     80  75  84 E7        30.05F
VALDOSTA       CLEAR     76  74  93 CALM      30.06F
ALMA           PTCLDY    76  72  87 CALM      30.05S
ST SIMONS      PTCLDY    83  74  74 SW9       30.03F
FT STEWART     CLEAR     75  73  93 CALM      30.03F
ALBANY         CLEAR     75  71  87 E5        30.09S
HUNTER AFB     CLEAR     81  80  97 E5        30.03F HX  91
BRUNSWICK      PTCLDY    82  75  78 SW5       30.04F


CITY           SKY/WX    TMP DP  RH WIND       PRES   REMARKS
BAINBRIDGE*    MOCLDY    79  73  83 CALM      30.07F
MOULTRIE*      CLEAR     79  73  83 CALM      30.08S
VIDALIA*       PTCLDY    77  72  83 CALM      30.07R
WAYCROSS*      PTCLDY    82  78  88 NW5       30.06R HX  90
DOUGLAS*       PTCLDY    77  72  83 CALM      30.07S
$$




USA.gov is the U.S. government's official web portal to all federal, state and local government web resources and services.